,,,PA_Meas_PMT16A,,PR_Meas_QMR101_102,,RH_Meas_QMH101,,SR_Meas_QMS101,,TA_Meas_QMH101,,GenWind,,GenWind,
date,time,status,PA,status,PR,status,RH,status,SR,status,TA,status,DirAvg,status,SpdAvg,
2009-09-23, 00:00:04,VALID,1000.75,VALID,0,VALID,82.0795,VALID,0,VALID,24.9698,VALID,134,VALID,0.858594,
2009-09-23, 00:01:04,VALID,1000.75,VALID,0,VALID,82.1252,VALID,0,VALID,24.9503,VALID,135,VALID,0.860547,
2009-09-23, 00:02:04,VALID,1000.74,VALID,0,VALID,82.1252,VALID,0,VALID,24.9503,VALID,127,VALID,0.873828,
2009-09-23, 00:03:04,VALID,1000.71,VALID,0,VALID,82.11,VALID,0,VALID,24.9503,VALID,128,VALID,0.697266,
2009-09-23, 00:04:04,VALID,1000.72,VALID,0,VALID,82.1557,VALID,0,VALID,24.9308,VALID,126,VALID,0.639453,
2009-09-23, 00:05:04,VALID,1000.73,VALID,0,VALID,82.1252,VALID,0,VALID,24.9308,VALID,132,VALID,1.00078,
2009-09-23, 00:06:04,VALID,1000.76,VALID,0,VALID,82.0947,VALID,0,VALID,24.9093,VALID,132,VALID,0.632813,
2009-09-23, 00:07:04,VALID,1000.72,VALID,0,VALID,82.0566,VALID,0,VALID,24.9308,VALID,132,VALID,0.601172,
2009-09-23, 00:08:04,VALID,1000.74,VALID,0,VALID,82.0871,VALID,0,VALID,24.9289,VALID,139,VALID,0.604688,
2009-09-23, 00:09:04,VALID,1000.74,VALID,0,VALID,82.1557,VALID,0,VALID,24.9112,VALID,139,VALID,0.358984,
2009-09-23, 00:10:04,VALID,1000.71,VALID,0,VALID,82.2855,VALID,0,VALID,24.8917,VALID,139,VALID,0.552734,
2009-09-23, 00:11:04,VALID,1000.72,VALID,0,VALID,82.3694,VALID,0,VALID,24.8527,VALID,138,VALID,0.532031,
2009-09-23, 00:12:04,VALID,1000.74,VALID,0,VALID,82.3694,VALID,0,VALID,24.8332,VALID,138,VALID,0.286328,
2009-09-23, 00:13:04,VALID,1000.73,VALID,0,VALID,82.5906,VALID,0,VALID,24.7941,VALID,138,VALID,0.116016,
2009-09-23, 00:14:04,VALID,1000.77,VALID,0,VALID,82.7661,VALID,0,VALID,24.7746,VALID,138,VALID,0,
2009-09-23, 00:15:04,VALID,1000.78,VALID,0,VALID,82.8958,VALID,0,VALID,24.7142,VALID,138,VALID,0,
2009-09-23, 00:16:04,VALID,1000.77,VALID,0,VALID,83.2315,VALID,0,VALID,24.6751,VALID,138,VALID,0.267969,
2009-09-23, 00:17:04,VALID,1000.75,VALID,0,VALID,83.5291,VALID,0,VALID,24.677,VALID,121,VALID,0.539844,
2009-09-23, 00:18:04,VALID,1000.76,VALID,0,VALID,83.6206,VALID,0,VALID,24.677,VALID,106,VALID,0.493359,
2009-09-23, 00:19:04,VALID,1000.76,VALID,0,VALID,83.819,VALID,0,VALID,24.677,VALID,106,VALID,0.538672,
2009-09-23, 00:20:04,VALID,1000.74,VALID,0,VALID,83.9411,VALID,0,VALID,24.6575,VALID,106,VALID,0.351953,
2009-09-23, 00:21:04,VALID,1000.75,VALID,0,VALID,84.3073,VALID,0,VALID,24.638,VALID,106,VALID,0.372656,
2009-09-23, 00:22:04,VALID,1000.74,VALID,0,VALID,84.3378,VALID,0,VALID,24.6184,VALID,106,VALID,0.321875,
2009-09-23, 00:23:04,VALID,1000.74,VALID,0,VALID,84.4675,VALID,0,VALID,24.6184,VALID,106,VALID,0.216016,
2009-09-23, 00:24:04,VALID,1000.74,VALID,0,VALID,84.5362,VALID,0,VALID,24.6184,VALID,106,VALID,0.107031,
2009-09-23, 00:25:04,VALID,1000.71,VALID,0,VALID,84.5667,VALID,0,VALID,24.5989,VALID,106,VALID,0.112109,
2009-09-23, 00:26:04,VALID,1000.74,VALID,0,VALID,84.6812,VALID,0,VALID,24.5989,VALID,106,VALID,0.345703,
2009-09-23, 00:27:04,VALID,1000.74,VALID,0,VALID,84.5286,VALID,0,VALID,24.5989,VALID,106,VALID,0.447656,
2009-09-23, 00:28:04,VALID,1000.72,VALID,0,VALID,84.4294,VALID,0,VALID,24.5775,VALID,106,VALID,0.274609,
2009-09-23, 00:29:04,VALID,1000.74,VALID,0,VALID,84.2539,VALID,0,VALID,24.5775,VALID,106,VALID,0.178125,
2009-09-23, 00:30:04,VALID,1000.74,VALID,0,VALID,84.2615,VALID,0,VALID,24.5971,VALID,106,VALID,0.150781,
2009-09-23, 00:31:04,VALID,1000.73,VALID,0,VALID,84.2692,VALID,0,VALID,24.5989,VALID,106,VALID,0.0855469,
2009-09-23, 00:32:04,VALID,1000.76,VALID,0,VALID,84.17,VALID,0,VALID,24.5794,VALID,106,VALID,0,
2009-09-23, 00:33:04,VALID,1000.7,VALID,0,VALID,84.2081,VALID,0,VALID,24.5599,VALID,106,VALID,0.00078125,
2009-09-23, 00:34:04,VALID,1000.74,VALID,0,VALID,84.2081,VALID,0,VALID,24.48,VALID,106,VALID,0.229687,
2009-09-23, 00:35:04,VALID,1000.71,VALID,0,VALID,84.7651,VALID,0,VALID,24.4233,VALID,106,VALID,0.0863281,
2009-09-23, 00:36:04,VALID,1000.71,VALID,0,VALID,85.1008,VALID,0,VALID,24.4037,VALID,106,VALID,0.116406,
2009-09-23, 00:37:04,VALID,1000.71,VALID,0,VALID,85.2152,VALID,0,VALID,24.4037,VALID,106,VALID,0.121094,
2009-09-23, 00:38:04,VALID,1000.7,VALID,0,VALID,85.3068,VALID,0,VALID,24.4037,VALID,106,VALID,0.139453,
2009-09-23, 00:39:04,VALID,1000.72,VALID,0,VALID,85.3144,VALID,0,VALID,24.3842,VALID,106,VALID,0,
2009-09-23, 00:40:04,VALID,1000.7,VALID,0,VALID,85.2686,VALID,0,VALID,24.4037,VALID,106,VALID,0,
2009-09-23, 00:41:04,VALID,1000.7,VALID,0,VALID,85.2152,VALID,0,VALID,24.3824,VALID,106,VALID,0.0851562,
2009-09-23, 00:42:04,VALID,1000.66,VALID,0,VALID,85.2534,VALID,0,VALID,24.4037,VALID,106,VALID,0,
2009-09-23, 00:43:04,VALID,1000.69,VALID,0,VALID,85.2305,VALID,0,VALID,24.4037,VALID,106,VALID,0,
2009-09-23, 00:44:04,VALID,1000.65,VALID,0,VALID,85.2305,VALID,0,VALID,24.4037,VALID,106,VALID,0.00429688,
2009-09-23, 00:45:04,VALID,1000.66,VALID,0,VALID,85.1618,VALID,0,VALID,24.4019,VALID,106,VALID,0.249219,
2009-09-23, 00:46:04,VALID,1000.63,VALID,0,VALID,85.0703,VALID,0,VALID,24.4214,VALID,106,VALID,0.208203,
2009-09-23, 00:47:04,VALID,1000.62,VALID,0,VALID,85.0855,VALID,0,VALID,24.4604,VALID,128,VALID,0.576172,
2009-09-23, 00:48:04,VALID,1000.62,VALID,0,VALID,84.9863,VALID,0,VALID,24.5013,VALID,128,VALID,0.341406,
2009-09-23, 00:49:04,VALID,1000.58,VALID,0,VALID,84.8643,VALID,0,VALID,24.5013,VALID,128,VALID,0.223047,
2009-09-23, 00:50:04,VALID,1000.62,VALID,0,VALID,84.994,VALID,0,VALID,24.4604,VALID,128,VALID,0.513672,
2009-09-23, 00:51:04,VALID,1000.61,VALID,0,VALID,85.0703,VALID,0,VALID,24.5209,VALID,128,VALID,0.502734,
2009-09-23, 00:52:04,VALID,1000.59,VALID,0,VALID,84.9787,VALID,0,VALID,24.48,VALID,124,VALID,0.611328,
2009-09-23, 00:53:04,VALID,1000.61,VALID,0,VALID,84.9253,VALID,0,VALID,24.4604,VALID,124,VALID,0.480859,
2009-09-23, 00:54:04,VALID,1000.62,VALID,0,VALID,85.0016,VALID,0,VALID,24.5013,VALID,111,VALID,0.633594,
2009-09-23, 00:55:04,VALID,1000.59,VALID,0,VALID,85.0474,VALID,0,VALID,24.4818,VALID,105,VALID,0.696484,
2009-09-23, 00:56:04,VALID,1000.58,VALID,0,VALID,85.2076,VALID,0,VALID,24.4604,VALID,105,VALID,0.611719,
2009-09-23, 00:57:04,VALID,1000.58,VALID,0,VALID,85.1084,VALID,0,VALID,24.5013,VALID,105,VALID,0.714844,
2009-09-23, 00:58:04,VALID,1000.57,VALID,0,VALID,85.2534,VALID,0,VALID,24.48,VALID,100,VALID,0.873828,
2009-09-23, 00:59:04,VALID,1000.56,VALID,0,VALID,85.5815,VALID,0,VALID,24.4214,VALID,100,VALID,0.91875,
2009-09-23, 01:00:04,VALID,1000.59,VALID,0,VALID,86.0163,VALID,0,VALID,24.3842,VALID,100,VALID,0.651172,
2009-09-23, 01:01:04,VALID,1000.55,VALID,0,VALID,86.3368,VALID,0,VALID,24.3257,VALID,100,VALID,0.592188,
2009-09-23, 01:02:04,VALID,1000.57,VALID,0,VALID,86.5809,VALID,0,VALID,24.2671,VALID,100,VALID,0.572266,
2009-09-23, 01:03:04,VALID,1000.56,VALID,0,VALID,86.9472,VALID,0,VALID,24.2476,VALID,100,VALID,0.598828,
2009-09-23, 01:04:04,VALID,1000.58,VALID,0,VALID,87.1074,VALID,0,VALID,24.1677,VALID,100,VALID,0.557813,
2009-09-23, 01:05:04,VALID,1000.59,VALID,0,VALID,87.3134,VALID,0,VALID,24.1677,VALID,100,VALID,0.476563,
2009-09-23, 01:06:04,VALID,1000.56,VALID,0,VALID,87.3515,VALID,0,VALID,24.2086,VALID,100,VALID,0.399219,
2009-09-23, 01:07:04,VALID,1000.58,VALID,0,VALID,87.2218,VALID,0,VALID,24.1872,VALID,100,VALID,0.330469,
2009-09-23, 01:08:04,VALID,1000.57,VALID,0,VALID,87.1684,VALID,0,VALID,24.2086,VALID,100,VALID,0.144922,
2009-09-23, 01:09:04,VALID,1000.58,VALID,0,VALID,87.2066,VALID,0,VALID,24.1872,VALID,100,VALID,0.25,
2009-09-23, 01:10:04,VALID,1000.57,VALID,0,VALID,87.2142,VALID,0,VALID,24.1872,VALID,100,VALID,0.242969,
2009-09-23, 01:11:04,VALID,1000.56,VALID,0,VALID,87.115,VALID,0,VALID,24.2067,VALID,100,VALID,0.15625,
2009-09-23, 01:12:04,VALID,1000.56,VALID,0,VALID,87.0234,VALID,0,VALID,24.1872,VALID,111,VALID,0.512109,
2009-09-23, 01:13:04,VALID,1000.57,VALID,0,VALID,87.0082,VALID,0,VALID,24.1872,VALID,114,VALID,0.314453,
2009-09-23, 01:14:04,VALID,1000.58,VALID,0,VALID,86.9472,VALID,0,VALID,24.2067,VALID,114,VALID,0.321484,
2009-09-23, 01:15:04,VALID,1000.58,VALID,0,VALID,86.9395,VALID,0,VALID,24.2049,VALID,114,VALID,0.351172,
2009-09-23, 01:16:04,VALID,1000.61,VALID,0,VALID,86.7259,VALID,0,VALID,24.2476,VALID,114,VALID,0.438672,
2009-09-23, 01:17:04,VALID,1000.61,VALID,0,VALID,86.7564,VALID,0,VALID,24.2263,VALID,114,VALID,0.490625,
2009-09-23, 01:18:04,VALID,1000.62,VALID,0,VALID,86.6877,VALID,0,VALID,24.2263,VALID,114,VALID,0.475,
2009-09-23, 01:19:04,VALID,1000.62,VALID,0,VALID,86.6115,VALID,0,VALID,24.2671,VALID,114,VALID,0.452734,
2009-09-23, 01:20:04,VALID,1000.61,VALID,0,VALID,86.4741,VALID,0,VALID,24.2458,VALID,114,VALID,0.345313,
2009-09-23, 01:21:04,VALID,1000.6,VALID,0,VALID,86.2757,VALID,0,VALID,24.2653,VALID,114,VALID,0.180078,
2009-09-23, 01:22:04,VALID,1000.61,VALID,0,VALID,86.2147,VALID,0,VALID,24.2653,VALID,114,VALID,0.417188,
2009-09-23, 01:23:04,VALID,1000.63,VALID,0,VALID,85.7951,VALID,0,VALID,24.2848,VALID,144,VALID,0.932422,
2009-09-23, 01:24:04,VALID,1000.6,VALID,0,VALID,85.4365,VALID,0,VALID,24.2848,VALID,142,VALID,0.948438,
2009-09-23, 01:25:04,VALID,1000.58,VALID,0,VALID,85.0169,VALID,0,VALID,24.3433,VALID,149,VALID,0.675391,
2009-09-23, 01:26:04,VALID,1000.57,VALID,0,VALID,84.849,VALID,0,VALID,24.3433,VALID,143,VALID,1.19687,
2009-09-23, 01:27:04,VALID,1000.56,VALID,0,VALID,84.6506,VALID,0,VALID,24.3824,VALID,145,VALID,1.13828,
2009-09-23, 01:28:04,VALID,1000.55,VALID,0,VALID,84.6277,VALID,0,VALID,24.4019,VALID,154,VALID,1.16953,
2009-09-23, 01:29:04,VALID,1000.53,VALID,0,VALID,84.5667,VALID,0,VALID,24.4214,VALID,144,VALID,1.26523,
2009-09-23, 01:30:04,VALID,1000.52,VALID,0,VALID,84.4141,VALID,0,VALID,24.4604,VALID,146,VALID,1.41758,
2009-09-23, 01:31:04,VALID,1000.5,VALID,0,VALID,84.2692,VALID,0,VALID,24.5209,VALID,133,VALID,1.10859,
2009-09-23, 01:32:04,VALID,1000.52,VALID,0,VALID,84.0708,VALID,0,VALID,24.519,VALID,138,VALID,0.968359,
2009-09-23, 01:33:04,VALID,1000.51,VALID,0,VALID,83.9792,VALID,0,VALID,24.5599,VALID,140,VALID,0.941797,
2009-09-23, 01:34:04,VALID,1000.54,VALID,0,VALID,83.9869,VALID,0,VALID,24.5385,VALID,140,VALID,0.81875,
2009-09-23, 01:35:04,VALID,1000.55,VALID,0,VALID,84.0555,VALID,0,VALID,24.519,VALID,135,VALID,0.969141,
2009-09-23, 01:36:04,VALID,1000.55,VALID,0,VALID,83.9945,VALID,0,VALID,24.5404,VALID,134,VALID,0.817578,
2009-09-23, 01:37:04,VALID,1000.57,VALID,0,VALID,84.17,VALID,0.112286,VALID,24.519,VALID,135,VALID,0.840625,
2009-09-23, 01:38:04,VALID,1000.54,VALID,0,VALID,84.1547,VALID,0,VALID,24.4995,VALID,144,VALID,0.621484,
2009-09-23, 01:39:04,VALID,1000.56,VALID,0,VALID,84.2692,VALID,0,VALID,24.4604,VALID,142,VALID,0.741406,
2009-09-23, 01:40:04,VALID,1000.56,VALID,0,VALID,84.4294,VALID,0.112286,VALID,24.4409,VALID,142,VALID,0.511328,
2009-09-23, 01:41:04,VALID,1000.57,VALID,0,VALID,84.6277,VALID,0,VALID,24.4019,VALID,142,VALID,0.591016,
2009-09-23, 01:42:04,VALID,1000.57,VALID,0,VALID,84.6277,VALID,0,VALID,24.4019,VALID,147,VALID,0.637891,
2009-09-23, 01:43:04,VALID,1000.59,VALID,0,VALID,84.643,VALID,0,VALID,24.4214,VALID,148,VALID,0.739062,
2009-09-23, 01:44:04,VALID,1000.6,VALID,0,VALID,84.4675,VALID,0,VALID,24.4214,VALID,174,VALID,0.8,
2009-09-23, 01:45:04,VALID,1000.66,VALID,0,VALID,84.4752,VALID,0,VALID,24.4409,VALID,165,VALID,0.969531,
2009-09-23, 01:46:04,VALID,1000.7,VALID,0,VALID,84.3531,VALID,0,VALID,24.48,VALID,174,VALID,0.726563,
2009-09-23, 01:47:04,VALID,1000.7,VALID,0,VALID,84.0708,VALID,0,VALID,24.519,VALID,174,VALID,0.760156,
2009-09-23, 01:48:04,VALID,1000.74,VALID,0,VALID,84.0403,VALID,0,VALID,24.5385,VALID,175,VALID,0.863281,
2009-09-23, 01:49:04,VALID,1000.71,VALID,0,VALID,83.9182,VALID,0,VALID,24.558,VALID,163,VALID,0.658203,
2009-09-23, 01:50:04,VALID,1000.69,VALID,0,VALID,83.9258,VALID,0,VALID,24.5385,VALID,162,VALID,0.717578,
2009-09-23, 01:51:04,VALID,1000.7,VALID,0,VALID,83.8572,VALID,0,VALID,24.5794,VALID,160,VALID,0.723437,
2009-09-23, 01:52:04,VALID,1000.68,VALID,0,VALID,83.6664,VALID,0,VALID,24.5989,VALID,160,VALID,0.555859,
2009-09-23, 01:53:04,VALID,1000.68,VALID,0,VALID,83.6893,VALID,0,VALID,24.6184,VALID,160,VALID,0.733203,
2009-09-23, 01:54:04,VALID,1000.73,VALID,0,VALID,83.5443,VALID,0,VALID,24.5971,VALID,159,VALID,0.604297,
2009-09-23, 01:55:04,VALID,1000.72,VALID,0,VALID,83.552,VALID,0,VALID,24.5971,VALID,159,VALID,0.669141,
2009-09-23, 01:56:04,VALID,1000.74,VALID,0,VALID,83.4757,VALID,0,VALID,24.638,VALID,159,VALID,0.376953,
2009-09-23, 01:57:04,VALID,1000.73,VALID,0,VALID,83.3917,VALID,0,VALID,24.638,VALID,159,VALID,0.465625,
2009-09-23, 01:58:04,VALID,1000.72,VALID,0,VALID,83.4604,VALID,0,VALID,24.6575,VALID,159,VALID,0.373828,
2009-09-23, 01:59:04,VALID,1000.74,VALID,0,VALID,83.2773,VALID,0,VALID,24.5971,VALID,159,VALID,0.344141,
2009-09-23, 02:00:04,VALID,1000.71,VALID,0,VALID,83.1476,VALID,0,VALID,24.5385,VALID,159,VALID,0.258984,
2009-09-23, 02:01:04,VALID,1000.72,VALID,0,VALID,83.7503,VALID,0,VALID,24.4409,VALID,159,VALID,0.0832031,
2009-09-23, 02:02:04,VALID,1000.68,VALID,0,VALID,84.2005,VALID,0,VALID,24.3629,VALID,159,VALID,0.0664063,
2009-09-23, 02:03:04,VALID,1000.68,VALID,0,VALID,84.5362,VALID,0,VALID,24.3257,VALID,159,VALID,0,
2009-09-23, 02:04:04,VALID,1000.68,VALID,0,VALID,84.7574,VALID,0,VALID,24.2866,VALID,159,VALID,0,
2009-09-23, 02:05:04,VALID,1000.69,VALID,0,VALID,84.9787,VALID,0,VALID,24.2086,VALID,159,VALID,0,
2009-09-23, 02:06:04,VALID,1000.7,VALID,0,VALID,85.1618,VALID,0,VALID,24.1696,VALID,159,VALID,0,
2009-09-23, 02:07:04,VALID,1000.69,VALID,0,VALID,85.4212,VALID,0,VALID,24.111,VALID,159,VALID,0,
2009-09-23, 02:08:04,VALID,1000.72,VALID,0,VALID,85.7646,VALID,0,VALID,24.0915,VALID,159,VALID,0.00195313,
2009-09-23, 02:09:04,VALID,1000.72,VALID,0,VALID,85.9706,VALID,0,VALID,24.111,VALID,159,VALID,0.473828,
2009-09-23, 02:10:04,VALID,1000.73,VALID,0,VALID,86.3063,VALID,0,VALID,24.1287,VALID,159,VALID,0.455078,
2009-09-23, 02:11:04,VALID,1000.71,VALID,0,VALID,86.2529,VALID,0,VALID,24.1677,VALID,159,VALID,0.458984,
2009-09-23, 02:12:04,VALID,1000.67,VALID,0,VALID,85.8943,VALID,0,VALID,24.2281,VALID,156,VALID,0.804297,
2009-09-23, 02:13:04,VALID,1000.66,VALID,0,VALID,85.5967,VALID,0,VALID,24.3257,VALID,142,VALID,0.828125,
2009-09-23, 02:14:04,VALID,1000.61,VALID,0,VALID,85.1008,VALID,0,VALID,24.4037,VALID,138,VALID,0.834375,
2009-09-23, 02:15:04,VALID,1000.63,VALID,0,VALID,84.6354,VALID,0,VALID,24.4409,VALID,137,VALID,0.816016,
2009-09-23, 02:16:04,VALID,1000.56,VALID,0,VALID,84.5972,VALID,0,VALID,24.4604,VALID,137,VALID,0.7625,
2009-09-23, 02:17:04,VALID,1000.56,VALID,0,VALID,84.1395,VALID,0,VALID,24.4604,VALID,137,VALID,0.700781,
2009-09-23, 02:18:04,VALID,1000.57,VALID,0,VALID,84.1089,VALID,0,VALID,24.4037,VALID,125,VALID,0.892578,
2009-09-23, 02:19:04,VALID,1000.56,VALID,0,VALID,84.9024,VALID,0,VALID,24.2653,VALID,124,VALID,0.845312,
2009-09-23, 02:20:04,VALID,1000.51,VALID,0,VALID,85.6654,VALID,0,VALID,24.1677,VALID,124,VALID,0.741797,
2009-09-23, 02:21:04,VALID,1000.49,VALID,0,VALID,86.1766,VALID,0,VALID,24.0897,VALID,124,VALID,0.742188,
2009-09-23, 02:22:04,VALID,1000.5,VALID,0,VALID,86.6115,VALID,0,VALID,24.0311,VALID,125,VALID,0.694141,
2009-09-23, 02:23:04,VALID,1000.46,VALID,0,VALID,86.8709,VALID,0,VALID,23.9726,VALID,124,VALID,0.857422,
2009-09-23, 02:24:04,VALID,1000.45,VALID,0,VALID,87.1837,VALID,0,VALID,23.9531,VALID,124,VALID,0.837109,
2009-09-23, 02:25:04,VALID,1000.41,VALID,0,VALID,87.3592,VALID,0,VALID,23.9354,VALID,125,VALID,0.913281,
2009-09-23, 02:26:04,VALID,1000.42,VALID,0,VALID,87.527,VALID,0,VALID,23.9159,VALID,125,VALID,0.848047,
2009-09-23, 02:27:04,VALID,1000.42,VALID,0,VALID,87.5804,VALID,0,VALID,23.9159,VALID,136,VALID,0.804297,
2009-09-23, 02:28:04,VALID,1000.45,VALID,0,VALID,87.6186,VALID,0,VALID,23.9159,VALID,140,VALID,0.775,
2009-09-23, 02:29:04,VALID,1000.44,VALID,0,VALID,87.5194,VALID,0,VALID,23.9354,VALID,144,VALID,0.714844,
2009-09-23, 02:30:04,VALID,1000.42,VALID,0,VALID,87.5804,VALID,0,VALID,23.914,VALID,152,VALID,0.744531,
2009-09-23, 02:31:04,VALID,1000.42,VALID,0,VALID,87.2676,VALID,0,VALID,23.9744,VALID,161,VALID,0.825,
2009-09-23, 02:32:04,VALID,1000.42,VALID,0,VALID,86.9014,VALID,0,VALID,23.9939,VALID,162,VALID,0.876172,
2009-09-23, 02:33:04,VALID,1000.43,VALID,0,VALID,86.5657,VALID,0,VALID,23.9921,VALID,163,VALID,0.759375,
2009-09-23, 02:34:04,VALID,1000.43,VALID,0,VALID,86.1766,VALID,0,VALID,24.0311,VALID,164,VALID,0.750781,
2009-09-23, 02:35:04,VALID,1000.46,VALID,0,VALID,85.9706,VALID,0,VALID,24.111,VALID,174,VALID,0.469141,
2009-09-23, 02:36:04,VALID,1000.46,VALID,0,VALID,85.7569,VALID,0,VALID,24.1305,VALID,175,VALID,0.373047,
2009-09-23, 02:37:04,VALID,1000.46,VALID,0,VALID,85.6577,VALID,0,VALID,24.1092,VALID,175,VALID,0.3625,
2009-09-23, 02:38:04,VALID,1000.46,VALID,0,VALID,85.5128,VALID,0,VALID,24.1482,VALID,176,VALID,0.500781,
2009-09-23, 02:39:04,VALID,1000.47,VALID,0,VALID,85.2686,VALID,0,VALID,24.1891,VALID,181,VALID,0.357812,
2009-09-23, 02:40:04,VALID,1000.46,VALID,0,VALID,85.1313,VALID,0,VALID,24.2086,VALID,181,VALID,0.0761719,
2009-09-23, 02:41:04,VALID,1000.47,VALID,0,VALID,85.1084,VALID,0,VALID,24.2067,VALID,181,VALID,0.139062,
2009-09-23, 02:42:04,VALID,1000.44,VALID,0,VALID,84.9482,VALID,0,VALID,24.1677,VALID,181,VALID,0,
2009-09-23, 02:43:04,VALID,1000.45,VALID,0,VALID,84.91,VALID,0,VALID,24.1092,VALID,181,VALID,0.0335938,
2009-09-23, 02:44:04,VALID,1000.44,VALID,0,VALID,85.2839,VALID,0,VALID,24.0915,VALID,173,VALID,0.499609,
2009-09-23, 02:45:04,VALID,1000.47,VALID,0,VALID,85.4517,VALID,0,VALID,24.0897,VALID,155,VALID,0.314844,
2009-09-23, 02:46:04,VALID,1000.46,VALID,0,VALID,85.4136,VALID,0,VALID,24.0897,VALID,182,VALID,0.532812,
2009-09-23, 02:47:04,VALID,1000.42,VALID,0,VALID,85.3526,VALID,0,VALID,24.1677,VALID,188,VALID,1.36445,
2009-09-23, 02:48:04,VALID,1000.42,VALID,0,VALID,84.8643,VALID,0,VALID,24.2653,VALID,183,VALID,1.35703,
2009-09-23, 02:49:04,VALID,1000.42,VALID,0,VALID,84.2997,VALID,0,VALID,24.3238,VALID,170,VALID,1.33086,
2009-09-23, 02:50:04,VALID,1000.4,VALID,0,VALID,83.8953,VALID,0,VALID,24.3824,VALID,171,VALID,1.50898,
2009-09-23, 02:51:04,VALID,1000.38,VALID,0,VALID,83.5138,VALID,0,VALID,24.4409,VALID,175,VALID,1.58047,
2009-09-23, 02:52:04,VALID,1000.34,VALID,0,VALID,83.1323,VALID,0,VALID,24.4604,VALID,163,VALID,1.48555,
2009-09-23, 02:53:04,VALID,1000.35,VALID,0,VALID,82.8653,VALID,0,VALID,24.4995,VALID,163,VALID,1.71211,
2009-09-23, 02:54:04,VALID,1000.35,VALID,0,VALID,82.6898,VALID,0,VALID,24.4995,VALID,164,VALID,1.74453,
2009-09-23, 02:55:04,VALID,1000.36,VALID,0,VALID,82.2549,VALID,0.112286,VALID,24.4604,VALID,179,VALID,1.77188,
2009-09-23, 02:56:04,VALID,1000.4,VALID,0,VALID,81.7285,VALID,0,VALID,24.4604,VALID,187,VALID,1.81953,
2009-09-23, 02:57:04,VALID,1000.43,VALID,0,VALID,81.5988,VALID,0,VALID,24.4409,VALID,191,VALID,1.66719,
2009-09-23, 02:58:04,VALID,1000.46,VALID,0,VALID,81.5149,VALID,0,VALID,24.4409,VALID,195,VALID,1.37344,
2009-09-23, 02:59:04,VALID,1000.51,VALID,0,VALID,81.4615,VALID,0,VALID,24.4409,VALID,197,VALID,1.1543,
2009-09-23, 03:00:04,VALID,1000.55,VALID,0,VALID,81.4996,VALID,0,VALID,24.4409,VALID,205,VALID,1.00781,
2009-09-23, 03:01:04,VALID,1000.57,VALID,0,VALID,81.5912,VALID,0.112286,VALID,24.4214,VALID,208,VALID,1.21367,
2009-09-23, 03:02:04,VALID,1000.6,VALID,0,VALID,81.8735,VALID,0,VALID,24.4428,VALID,230,VALID,0.532031,
2009-09-23, 03:03:04,VALID,1000.63,VALID,0,VALID,81.9726,VALID,0,VALID,24.4233,VALID,230,VALID,0.402344,
2009-09-23, 03:04:04,VALID,1000.65,VALID,0,VALID,82.6288,VALID,0,VALID,24.4233,VALID,230,VALID,0.35625,
2009-09-23, 03:05:04,VALID,1000.65,VALID,0,VALID,83.2239,VALID,0,VALID,24.3452,VALID,230,VALID,0.473828,
2009-09-23, 03:06:04,VALID,1000.67,VALID,0,VALID,83.5901,VALID,0,VALID,24.2263,VALID,235,VALID,0.497656,
2009-09-23, 03:07:04,VALID,1000.69,VALID,0,VALID,83.9792,VALID,0,VALID,24.1287,VALID,271,VALID,0.652344,
2009-09-23, 03:08:04,VALID,1000.68,VALID,0,VALID,84.2768,VALID,0,VALID,24.0525,VALID,271,VALID,0.639844,
2009-09-23, 03:09:04,VALID,1000.68,VALID,0,VALID,84.6201,VALID,0,VALID,23.9939,VALID,271,VALID,0.36875,
2009-09-23, 03:10:04,VALID,1000.72,VALID,0,VALID,85.0397,VALID,0,VALID,23.9159,VALID,271,VALID,0.310547,
2009-09-23, 03:11:04,VALID,1000.69,VALID,0,VALID,85.4365,VALID,0,VALID,23.8183,VALID,271,VALID,0.215625,
2009-09-23, 03:12:04,VALID,1000.69,VALID,0,VALID,85.7951,VALID,0,VALID,23.7597,VALID,271,VALID,0.146484,
2009-09-23, 03:13:04,VALID,1000.72,VALID,0,VALID,85.7646,VALID,0,VALID,23.6799,VALID,271,VALID,0,
2009-09-23, 03:14:04,VALID,1000.72,VALID,0,VALID,86.085,VALID,0,VALID,23.5841,VALID,271,VALID,0.009375,
2009-09-23, 03:15:04,VALID,1000.76,VALID,0,VALID,86.8174,VALID,0,VALID,23.5451,VALID,271,VALID,0.391016,
2009-09-23, 03:16:04,VALID,1000.76,VALID,0,VALID,87.1684,VALID,0,VALID,23.4458,VALID,271,VALID,0.597656,
2009-09-23, 03:17:04,VALID,1000.78,VALID,0,VALID,87.2523,VALID,0.112286,VALID,23.4263,VALID,277,VALID,0.628906,
2009-09-23, 03:18:04,VALID,1000.81,VALID,0,VALID,87.2142,VALID,0,VALID,23.428,VALID,279,VALID,0.685156,
2009-09-23, 03:19:04,VALID,1000.8,VALID,0,VALID,87.2142,VALID,0,VALID,23.4475,VALID,282,VALID,0.714453,
2009-09-23, 03:20:04,VALID,1000.78,VALID,0,VALID,86.9624,VALID,0,VALID,23.4866,VALID,284,VALID,0.676172,
2009-09-23, 03:21:04,VALID,1000.8,VALID,0,VALID,86.9472,VALID,0,VALID,23.5061,VALID,284,VALID,0.35625,
2009-09-23, 03:22:04,VALID,1000.8,VALID,0,VALID,87.1226,VALID,0,VALID,23.5061,VALID,284,VALID,0.321094,
2009-09-23, 03:23:04,VALID,1000.83,VALID,0,VALID,87.4278,VALID,0,VALID,23.4671,VALID,284,VALID,0.514453,
2009-09-23, 03:24:04,VALID,1000.85,VALID,0,VALID,87.6643,VALID,0,VALID,23.4067,VALID,284,VALID,0.569922,
2009-09-23, 03:25:04,VALID,1000.87,VALID,0,VALID,87.7711,VALID,0.112286,VALID,23.3695,VALID,325,VALID,0.801172,
2009-09-23, 03:26:04,VALID,1000.91,VALID,0,VALID,88.5112,VALID,0,VALID,23.2915,VALID,330,VALID,0.760156,
2009-09-23, 03:27:04,VALID,1000.86,VALID,0,VALID,88.6562,VALID,0,VALID,23.2329,VALID,330,VALID,0.784375,
2009-09-23, 03:28:04,VALID,1000.91,VALID,0,VALID,89.3657,VALID,0,VALID,23.1939,VALID,330,VALID,0.582031,
2009-09-23, 03:29:04,VALID,1000.91,VALID,0,VALID,89.6862,VALID,0,VALID,23.1939,VALID,330,VALID,0.348437,
2009-09-23, 03:30:04,VALID,1000.86,VALID,0,VALID,89.3047,VALID,0,VALID,23.1336,VALID,330,VALID,0.343359,
2009-09-23, 03:31:04,VALID,1000.87,VALID,0,VALID,89.1445,VALID,0,VALID,23.0573,VALID,330,VALID,0.277734,
2009-09-23, 03:32:04,VALID,1000.86,VALID,0,VALID,89.999,VALID,0,VALID,23.0183,VALID,330,VALID,0.535156,
2009-09-23, 03:33:04,VALID,1000.83,VALID,0,VALID,90.3881,VALID,0,VALID,22.9971,VALID,341,VALID,0.657031,
2009-09-23, 03:34:04,VALID,1000.8,VALID,0,VALID,90.3347,VALID,0,VALID,23.0378,VALID,43,VALID,1.01328,
2009-09-23, 03:35:04,VALID,1000.81,VALID,0,VALID,89.5717,VALID,0,VALID,22.9988,VALID,54,VALID,1.37617,
2009-09-23, 03:36:04,VALID,1000.76,VALID,0,VALID,89.4191,VALID,0,VALID,22.9403,VALID,62,VALID,1.31836,
2009-09-23, 03:37:04,VALID,1000.76,VALID,0,VALID,89.5641,VALID,0,VALID,22.8995,VALID,61,VALID,1.37578,
2009-09-23, 03:38:04,VALID,1000.74,VALID,0,VALID,89.6862,VALID,0,VALID,22.9208,VALID,61,VALID,1.24023,
2009-09-23, 03:39:04,VALID,1000.7,VALID,0,VALID,89.7854,VALID,0,VALID,22.9013,VALID,57,VALID,1.17188,
2009-09-23, 03:40:04,VALID,1000.71,VALID,0,VALID,89.9151,VALID,0,VALID,22.8623,VALID,49,VALID,1.1125,
2009-09-23, 03:41:04,VALID,1000.73,VALID,0,VALID,90.1821,VALID,0,VALID,22.8232,VALID,42,VALID,0.973047,
2009-09-23, 03:42:04,VALID,1000.69,VALID,0,VALID,90.1211,VALID,0,VALID,22.7647,VALID,35,VALID,0.935547,
2009-09-23, 03:43:04,VALID,1000.69,VALID,0,VALID,90.2126,VALID,0,VALID,22.7257,VALID,35,VALID,0.760547,
2009-09-23, 03:44:04,VALID,1000.67,VALID,0,VALID,90.2889,VALID,0,VALID,22.6672,VALID,36,VALID,0.65625,
2009-09-23, 03:45:04,VALID,1000.62,VALID,0,VALID,90.5483,VALID,0,VALID,22.5874,VALID,43,VALID,0.826563,